User: anonymous   Login
Location: Boussy-Saint-Antoine
(48.6830°N, 2.5330°E)
Time: 12:01:12
(UTC+02:00)
Language:

KKS-1 - Orbit

View from above orbital plane
View from above orbital plane
View from above satellite
View from above satellite

Ground track
Ground track

The orbit data is extracted from the following two-line orbital elements,

1 33499U 09002H   19228.87869587 +.00000036 +00000-0 +13425-4 0  9997
2 33499 098.3472 069.4642 0009735 025.7521 334.4170 14.75454924567522
Epoch (UTC): 16 August 2019 21:05:19
Eccentricity: 0.0009735
inclination: 98.3472°
perigee height: 637 km
apogee height: 650 km
right ascension of ascending node: 69.4642°
argument of perigee: 25.7521°
revolutions per day: 14.75454924
mean anomaly at epoch: 334.4170°
orbit number at epoch: 56752

The dashed part of the orbit path shows where the satellite is in the earth's shadow,  

DLR